Regional Weather Roundup
Issued by NWS Green Bay, WI

Home | Current Version | Previous Version | Graphics & Text | Print | Product List | Glossary Off
Versions: 1 2 3 4 5 6 7 8 9 10 11 12 13 14 15 16 17 18 19 20 21 22 23 24 25 26 27 28 29 30 31 32 33 34 35 36 37 38 39 40 41 42 43 44 45 46 47 48 49 50

000
ASUS43 KGRB 091500
RWRGRB

NORTH-CENTRAL AND NORTHEAST WISCONSIN REGIONAL WEATHER ROUNDUP
NATIONAL WEATHER SERVICE GREEN BAY WI
900 AM CST TUE FEB 09 2016

WIZ005-009-010>012-018-019-091600-
NORTH CENTRAL WISCONSIN

CITY           SKY/WX    TMP DP  RH WIND       PRES   REMARKS
IRONWOOD       CLOUDY    10   7  85 N16G23    29.89R VSB 1   WCI  -7
MANITOWISH WTR NOT AVBL
ARBOR VITAE    NOT AVBL
EAGLE RIVER    NOT AVBL
LAND O LAKES   NOT AVBL
RHINELANDER    CLOUDY    11   2  67 N9G21     29.79S WCI  -2
PHILLIPS       NOT AVBL
ANTIGO         NOT AVBL
TOMAHAWK       NOT AVBL
MERRILL        NOT AVBL
$$

WIZ013-073-091600-
NORTHEAST WISCONSIN

CITY           SKY/WX    TMP DP  RH WIND       PRES   REMARKS
IRON MOUNTAIN  LGT SNOW  11   3  70 NW16      29.77R VSB 1   WCI  -6
MARINETTE      CLOUDY    14   5  67 NW15G22   29.78S WCI  -1
$$

WIZ017-030-035>037-045-091600-
CENTRAL WISCONSIN

CITY           SKY/WX    TMP DP  RH WIND       PRES   REMARKS
MEDFORD        NOT AVBL
WAUSAU         LGT SNOW  12   5  73 NW7       29.81S WCI   1
MOSINEE        LGT SNOW   9   5  85 NW12G18   29.84R WCI  -6
MARSHFIELD     CLOUDY     6  -2  69 NW21      29.85S HAZE    WCI -14
WISC RAPIDS    CLOUDY     8  -1  66 NW15      29.89S WCI  -9
STEVENS POINT  NOT AVBL
WAUPACA        NOT AVBL
SHAWANO        NOT AVBL
CLINTONVILLE   NOT AVBL
WAUTOMA        NOT AVBL
$$

WIZ038-039-048-051-091600-
FOX VALLEY

CITY           SKY/WX    TMP DP  RH WIND       PRES   REMARKS
NWS GREEN BAY  LGT SNOW  14   8  77 NW10      29.82R WCI   1
APPLETON       LGT SNOW  12   7  79 NW13      29.80R WCI  -3
OSHKOSH        CLOUDY    11   5  77 NW14      29.83R HAZE    WCI  -5
FOND DU LAC    LGT SNOW  12   5  73 NW17      29.83R WCI  -5
$$

WIZ022-050-052-091600-
EAST CENTRAL WISCONSIN

CITY           SKY/WX    TMP DP  RH WIND       PRES   REMARKS
EPHRAIM        NOT AVBL
STURGEON BAY   CLOUDY    14   3  62 NW17      29.79S WCI  -3
MANITOWOC      NOT AVBL
SHEBOYGAN      CLOUDY    13   6  74 NW13G21   29.79S WCI  -2
$$

LMZ563-521-522-541>543-091600-
LAKESHORE

STATION/POSITION TIME  TEMP    WIND        PRES    VSBY  WAVE
                       AIR SEA DIR/SP/G                  HT/PER
                 (UTC) (F)     (DEG/KT/KT) (MB)    (MI)  (FT/S)
SHEBOYGAN LKSHOR 1400   14     310/ 14/ 18 1010.1R
KEWAUNEE LKSHORE 1400   15     320/  9/ 18 1007.6R
ALGOMA MARINA    1411          330/ 16/ 23   N/A
CHAMBERS ISLAND  1400   15     310/ 18/ 25 1008.5R
MENOMINEE LKSHOR 1400   14     310/ 13     1007.6R
$$



USA.gov is the U.S. government's official web portal to all federal, state and local government web resources and services.